Date String (YYYY-MM-DD hh:mm:ss) UTC,Instrument flags,absolute air pressure of the measurement (hPa),sample flow rate (lpm),inlet stack bypass flow (lpm),air temperature of the measurement (°C),ambient temperature measured by the external sensor (°C),aerosol sample conditioner tube jacket temperature (°C),OPC LED temperature (°C),internal box temperature (°C),relative humidity of the measurement (%),span deviation,mass concentration of particles derived from Lorenz-Mie calculation of OPC scattering (μg/m³),mass concentration of particles derived from Lorenz-Mie calculation of OPC scattering (μg/m³),mass concentration of particles derived from Lorenz-Mie calculation of OPC scattering (μg/m³)
DateTimeUTC,F1_M11,P_M11,Q1_M11,Q2_M11,T1_M11,T2_M11,T3_M11,T4_M11,T5_M11,U1_M11,ZSPAN_M11,X0_M11,X2_M11,X1_M11
2023-06-26 14:00:00,SystemResetWarning,0831.5,5.00,000.00,030.1,025.5,000.0,038.7,031.2,25.0,0003.2,0012.00,0005.30,0004.44
2023-06-26 14:01:00,SystemResetWarning,0831.5,5.00,000.00,030.0,025.9,000.0,038.7,031.3,25.4,0001.1,0012.46,0005.37,0004.44
2023-06-26 14:02:00,SystemResetWarning,0831.5,5.01,000.00,030.0,026.4,000.0,038.7,031.3,25.3,0001.7,0012.24,0005.38,0004.43
2023-06-26 14:03:00,SystemResetWarning,0831.5,4.99,000.00,030.0,026.7,000.0,038.6,031.3,25.5,0000.4,0012.30,0005.43,0004.43
2023-06-26 14:04:00,SystemResetWarning,0831.5,5.01,000.00,030.0,027.0,000.0,038.6,031.3,25.9,0000.0,0012.16,0005.41,0004.43
2023-06-26 14:05:00,SystemResetWarning,0831.5,5.00,000.00,029.9,027.3,000.0,038.6,031.3,26.2,0000.0,0011.91,0005.37,0004.42
2023-06-26 14:06:00,SystemResetWarning,0831.5,5.00,000.00,029.9,027.5,000.0,038.6,031.3,26.2,0000.0,0012.03,0005.37,0004.42
2023-06-26 14:07:00,SystemResetWarning,0831.5,4.99,000.00,029.9,027.7,000.0,038.6,031.3,26.2,0000.0,0011.32,0005.35,0004.42
2023-06-26 14:08:00,SystemResetWarning,0831.5,5.00,000.00,029.9,027.8,000.0,038.6,031.3,26.3,0000.0,0011.08,0005.34,0004.43
2023-06-26 14:09:00,SystemResetWarning,0831.6,5.00,000.00,029.9,027.9,000.0,038.6,031.3,27.2,0000.0,0012.21,0005.31,0004.43
2023-06-26 14:10:00,SystemResetWarning,0831.6,5.00,000.00,029.9,028.0,000.0,038.6,031.4,26.7,0000.0,0013.31,0005.30,0004.45
2023-06-26 14:11:00,SystemResetWarning,0831.6,5.00,000.00,029.9,028.1,000.0,038.6,031.4,27.0,0000.0,0014.22,0005.34,0004.46
2023-06-26 14:12:00,SystemResetWarning,0831.5,4.99,000.00,030.0,028.2,000.0,038.6,031.4,26.7,0000.0,0014.69,0005.34,0004.46
2023-06-26 14:13:00,SystemResetWarning,0831.5,5.00,000.00,030.0,028.2,000.0,038.6,031.4,27.2,0000.0,0014.40,0005.36,0004.49
2023-06-26 14:14:00,SystemResetWarning,0831.6,5.00,000.00,030.0,028.3,000.0,038.6,031.4,27.4,0000.0,0014.43,0005.38,0004.50
2023-06-26 14:15:00,SystemResetWarning,0831.5,5.00,000.00,030.0,028.3,000.0,038.6,031.4,27.6,0000.0,0014.65,0005.39,0004.51
2023-06-26 14:16:00,SystemResetWarning,0831.6,5.00,000.00,030.0,028.3,000.0,038.6,031.4,27.9,0000.0,0015.31,0005.43,0004.53
2023-06-26 14:17:00,SystemResetWarning,0831.6,5.00,000.00,030.0,028.4,000.0,038.6,031.5,27.4,0000.0,0015.46,0005.45,0004.54
2023-06-26 14:18:00,SystemResetWarning,0831.6,5.01,000.00,030.0,028.4,000.0,038.6,031.5,27.7,0000.0,0015.53,0005.46,0004.57
2023-06-26 14:19:00,SystemResetWarning,0831.6,5.00,000.00,030.0,028.4,000.0,038.6,031.5,27.7,0000.0,0015.64,0005.49,0004.57
2023-06-26 14:20:00,SystemResetWarning,0831.6,5.00,000.00,030.1,028.5,000.0,038.6,031.5,27.6,0000.0,0014.91,0005.57,0004.59
2023-06-26 14:21:00,SystemResetWarning,0831.6,4.99,000.00,030.1,028.5,000.0,038.6,031.5,27.7,0000.0,0013.34,0005.58,0004.59
2023-06-26 14:22:00,SystemResetWarning,0831.5,4.99,000.00,030.1,028.5,000.0,038.6,031.6,28.1,0000.0,0012.54,0005.58,0004.59
2023-06-26 14:23:00,SystemResetWarning,0831.5,5.00,000.00,030.1,028.6,000.0,038.6,031.6,28.0,0000.0,0011.71,0005.56,0004.61
2023-06-26 14:24:00,SystemResetWarning,0831.5,5.01,000.00,030.1,028.6,000.0,038.6,031.6,28.2,0000.0,0011.79,0005.57,0004.61
2023-06-26 14:25:00,SystemResetWarning,0831.5,5.01,000.00,030.1,028.6,000.0,038.6,031.6,27.7,0000.0,0011.53,0005.53,0004.62
2023-06-26 14:26:00,SystemResetWarning,0831.5,5.00,000.00,030.1,028.6,000.0,038.7,031.6,27.4,0000.0,0011.47,0005.54,0004.63
2023-06-26 14:27:00,SystemResetWarning,0831.5,5.00,000.00,030.2,028.7,000.0,038.7,031.7,28.1,0000.0,0011.15,0005.60,0004.64
2023-06-26 14:28:00,SystemResetWarning,0831.5,5.00,000.00,030.2,028.7,000.0,038.7,031.7,28.2,0000.0,0010.78,0005.63,0004.64
2023-06-26 14:29:00,SystemResetWarning,0831.5,4.99,000.00,030.2,028.3,000.0,038.7,031.8,27.8,0000.0,0011.15,0005.67,0004.66
2023-06-26 14:30:00,SystemResetWarning,0831.4,5.00,000.00,030.2,026.4,000.0,038.6,031.7,28.2,0000.0,0011.62,0005.71,0004.70
2023-06-26 14:31:00,SystemResetWarning,0831.4,5.00,000.00,030.2,025.1,000.0,038.5,031.6,27.9,0000.0,0011.61,0005.73,0004.72
2023-06-26 14:32:00,SystemResetWarning,0831.4,5.02,000.00,030.1,025.3,000.0,038.5,031.5,28.7,0000.0,0011.66,0005.72,0004.75
2023-06-26 14:33:00,SystemResetWarning,0831.4,5.00,000.00,030.0,025.6,000.0,038.5,031.2,28.0,0000.0,0012.02,0005.74,0004.78
2023-06-26 14:34:00,SystemResetWarning,0831.4,4.99,000.00,029.9,026.0,000.0,038.5,031.2,28.3,0000.0,0012.17,0005.75,0004.81
2023-06-26 14:35:00,SystemResetWarning,0831.4,5.00,000.00,029.9,026.4,000.0,038.5,031.2,28.6,0000.0,0012.35,0005.76,0004.83
2023-06-26 14:36:00,SystemResetWarning,0831.4,5.01,000.00,029.9,026.8,000.0,038.5,031.2,28.4,0000.0,0012.73,0005.82,0004.86
2023-06-26 14:37:00,SystemResetWarning,0831.4,5.00,000.00,029.9,027.1,000.0,038.5,031.2,27.7,0001.4,0012.70,0005.83,0004.89
2023-06-26 14:38:00,SystemResetWarning,0831.3,4.99,000.00,029.9,027.4,000.0,038.5,031.2,27.9,0003.7,0012.39,0005.80,0004.92
2023-06-26 14:39:00,SystemResetWarning,0831.4,5.00,000.00,029.9,027.6,000.0,038.5,031.3,28.8,0003.8,0012.19,0005.82,0004.95
2023-06-26 14:40:00,SystemResetWarning,0831.4,5.00,000.00,029.9,027.7,000.0,038.5,031.3,28.3,0003.7,0011.87,0005.88,0004.97
2023-06-26 14:41:00,SystemResetWarning,0831.4,5.01,000.00,029.9,027.9,000.0,038.5,031.3,28.2,0003.0,0011.68,0005.93,0004.98
2023-06-26 14:42:00,SystemResetWarning,0831.4,5.00,000.00,029.9,028.0,000.0,038.5,031.3,28.0,0002.7,0011.80,0005.91,0004.99
2023-06-26 14:43:00,SystemResetWarning,0831.4,5.01,000.00,029.9,028.1,000.0,038.5,031.4,28.2,0002.2,0011.92,0005.99,0005.00
2023-06-26 14:44:00,SystemResetWarning,0831.3,5.00,000.00,029.9,028.2,000.0,038.5,031.4,27.9,0002.0,0011.66,0006.01,0004.98
2023-06-26 14:45:00,SystemResetWarning,0831.4,5.00,000.00,029.9,028.2,000.0,038.5,031.4,28.0,0002.5,0011.87,0006.01,0004.96
2023-06-26 14:46:00,SystemResetWarning,0831.4,4.99,000.00,029.9,028.3,000.0,038.5,031.4,27.9,0002.9,0011.96,0006.08,0004.97
2023-06-26 14:47:00,SystemResetWarning,0831.4,5.00,000.00,030.0,028.3,000.0,038.5,031.4,27.4,0002.8,0012.21,0006.10,0004.96
2023-06-26 14:48:00,SystemResetWarning,0831.3,5.00,000.00,030.0,028.4,000.0,038.5,031.4,27.3,0002.2,0012.77,0006.15,0004.96
2023-06-26 14:49:00,SystemResetWarning,0831.4,5.01,000.00,030.0,028.4,000.0,038.5,031.5,27.9,0002.0,0014.35,0006.24,0004.97
2023-06-26 14:50:00,SystemResetWarning,0831.4,5.01,000.00,030.0,028.5,000.0,038.5,031.5,27.8,0001.9,0015.45,0006.24,0004.96
2023-06-26 14:51:00,SystemResetWarning,0831.4,5.01,000.00,030.0,028.5,000.0,038.5,031.5,28.3,0001.5,0016.29,0006.29,0004.96
2023-06-26 14:52:00,SystemResetWarning,0831.5,5.00,000.00,030.1,028.6,000.0,038.5,031.6,28.5,0001.7,0016.51,0006.36,0004.95
2023-06-26 14:53:00,SystemResetWarning,0831.4,4.99,000.00,030.1,028.6,000.0,038.6,031.6,27.7,0001.0,0017.20,0006.44,0004.95
2023-06-26 14:54:00,SystemResetWarning,0831.3,5.00,000.00,030.1,028.6,000.0,038.6,031.6,27.6,0000.8,0017.12,0006.44,0004.94
2023-06-26 14:55:00,SystemResetWarning,0831.3,5.00,000.00,030.1,027.5,000.0,038.5,031.7,27.6,0001.2,0017.05,0006.42,0004.94
2023-06-26 14:56:00,SystemResetWarning,0831.3,5.00,000.00,030.1,025.4,000.0,038.5,031.7,27.2,0001.1,0016.95,0006.47,0004.96
2023-06-26 14:57:00,SystemResetWarning,0831.3,5.01,000.00,030.1,024.8,000.0,038.4,031.6,27.9,0001.0,0016.58,0006.43,0004.95
2023-06-26 14:58:00,SystemResetWarning,0831.3,5.01,000.00,030.0,025.2,000.0,038.4,031.2,29.1,0001.1,0016.35,0006.41,0004.95
2023-06-26 14:59:00,SystemResetWarning,0831.4,4.99,000.00,029.9,025.6,000.0,038.4,031.1,30.2,0002.3,0016.92,0006.49,0004.96
